, FL

(GMT )
Crestview

Weather History for KEGI - June, 2013

Change the Weather History Date:

Monday, June 17, 2013

  Actual Average Record
Temperature  
Mean Temperature 81 °F -  
Max Temperature 89 °F - - ()
Min Temperature 73 °F - - ()
Cooling Degree Days 16    
Growing Degree Days 31 (Base 50)    
Moisture  
Dew Point 73 °F    
Average Humidity 80    
Maximum Humidity 98    
Minimum Humidity 58    
Precipitation  
Precipitation 0.00 in - - ()
Sea Level Pressure  
Sea Level Pressure 30.01 in    
Wind  
Wind Speed 6 mph (South)    
Max Wind Speed 16 mph    
Max Gust Speed 17 mph    
Visibility 10 miles    
Events Rain , Thunderstorm    
T = Trace of Precipitation, MM = Missing Value Source: NWS Daily Summary

Daily Weather History Graph

Daily Weather History Graph

Search for Another Location

Airport or City:

Trip Planner

Search our weather history database for the weather conditions in past years. The results will help you decide how hot, cold, wet, or windy it might be!

Date:

Astronomy

Jun. 17, 2013 Rise Set
Actual Time 5:43 AM CDT 7:50 PM CDT
Civil Twilight 5:15 AM CDT 8:18 PM CDT
Nautical Twilight 4:41 AM CDT 8:52 PM CDT
Astronomical Twilight 4:05 AM CDT 9:28 PM CDT
Moon 1:48 PM CDT (6/17) 12:56 AM CDT (6/17)
Length of Visible Light 15h 03m
Length of Day
14h 07m
First Quarter, 60% of the Moon is Illuminated
Jun 17
First Quarter
Jun 23
Full
Jun 29
Last Quarter
Jul 8
New
Jul 15
First Quarter

Hourly Weather History & Observations

Time (CDT) Temp. Heat Index Dew Point Humidity Pressure Visibility Wind Dir Wind Speed Gust Speed Precip Events Conditions
12:58 AM 78.3 °F - 74.1 °F 87% 30.03 in 10.0 mi SSW 2.3 mph - N/A   Clear
1:58 AM 76.6 °F - 74.5 °F 93% 30.02 in 10.0 mi South 2.3 mph - N/A   Scattered Clouds
2:58 AM 75.7 °F - 74.5 °F 96% 30.01 in 10.0 mi South 3.5 mph - N/A   Clear
3:58 AM 74.8 °F - 74.1 °F 98% 30.02 in 10.0 mi South 1.2 mph - N/A   Partly Cloudy
4:58 AM 73.0 °F - 72.5 °F 98% 30.02 in 10.0 mi SE 2.3 mph - N/A   Partly Cloudy
5:58 AM 76.6 °F - 75.7 °F 97% 30.04 in 10.0 mi Calm Calm - N/A Thunderstorm Scattered Clouds
6:03 AM 77.0 °F - 75.2 °F 94% 30.03 in 10.0 mi Calm Calm - N/A Thunderstorm Thunderstorm
6:28 AM 78.8 °F - 75.2 °F 89% 30.04 in 10.0 mi SW 10.4 mph - N/A Rain , Thunderstorm Light Thunderstorms and Rain
6:29 AM 78.8 °F - 75.2 °F 89% 30.04 in 10.0 mi SW 9.2 mph - N/A Rain Light Rain
6:39 AM 77.0 °F - 73.4 °F 89% 30.04 in 10.0 mi South 9.2 mph - N/A Rain , Thunderstorm Light Rain
6:47 AM 75.2 °F - 71.6 °F 89% 30.04 in 10.0 mi South 10.4 mph - N/A Rain , Thunderstorm Light Thunderstorms and Rain
6:54 AM 75.2 °F - 73.4 °F 94% 30.04 in 10.0 mi South 6.9 mph - N/A Thunderstorm Thunderstorm
6:58 AM 74.5 °F - 72.7 °F 94% 30.04 in 10.0 mi SSE 8.1 mph - 0.00 in Thunderstorm Thunderstorm
7:03 AM 75.2 °F - 71.6 °F 89% 30.03 in 10.0 mi South 6.9 mph - N/A Thunderstorm Partly Cloudy
7:58 AM 77.0 °F - 70.7 °F 81% 30.04 in 10.0 mi ESE 4.6 mph - N/A   Partly Cloudy
8:55 AM 80.6 °F 84.2 °F 70.7 °F 72% 30.04 in 10.0 mi South 9.2 mph - N/A   Mostly Cloudy
9:57 AM 77.0 °F - 74.1 °F 91% 30.02 in 10.0 mi South 9.2 mph - N/A   Mostly Cloudy
10:55 AM 85.8 °F 92.6 °F 73.0 °F 65% 30.03 in 10.0 mi South 9.2 mph - N/A   Mostly Cloudy
11:55 AM 87.6 °F 95.2 °F 73.2 °F 62% 30.03 in 10.0 mi SSW 13.8 mph - N/A   Mostly Cloudy
12:13 PM 87.8 °F 95.6 °F 73.4 °F 62% 30.01 in 10.0 mi SW 13.8 mph - N/A Thunderstorm Thunderstorm
12:55 PM 86.4 °F 92.6 °F 72.0 °F 62% 30.02 in 10.0 mi South 11.5 mph - N/A Thunderstorm Thunderstorm
1:48 PM 87.8 °F 93.8 °F 71.6 °F 58% 30.00 in 10.0 mi South 15.0 mph - N/A   Mostly Cloudy
1:59 PM 88.0 °F 95.1 °F 72.3 °F 60% 30.00 in 10.0 mi South 15.0 mph - N/A   Mostly Cloudy
2:55 PM 88.5 °F 96.8 °F 73.8 °F 61% 29.99 in 10.0 mi South 16.1 mph - N/A   Mostly Cloudy
3:55 PM 89.2 °F 97.4 °F 73.0 °F 59% 29.97 in 10.0 mi SW 12.7 mph - N/A   Mostly Cloudy
4:55 PM 88.0 °F 96.5 °F 73.8 °F 63% 29.97 in 10.0 mi South 15.0 mph - N/A   Mostly Cloudy
5:55 PM 86.5 °F 93.8 °F 73.0 °F 64% 29.98 in 10.0 mi SW 11.5 mph 17.3 mph N/A   Mostly Cloudy
6:55 PM 84.2 °F 90.6 °F 73.2 °F 69% 29.97 in 10.0 mi SSW 9.2 mph - N/A   Mostly Cloudy
7:55 PM 82.6 °F 88.6 °F 73.4 °F 74% 29.99 in 10.0 mi SSW 9.2 mph - N/A   Mostly Cloudy
8:55 PM 81.0 °F 86.2 °F 73.8 °F 79% 29.99 in 10.0 mi South 9.2 mph - N/A   Mostly Cloudy
9:55 PM 79.3 °F - 74.3 °F 84% 30.00 in 10.0 mi South 5.8 mph - N/A   Scattered Clouds
10:55 PM 78.1 °F - 73.9 °F 87% 30.00 in 10.0 mi South 5.8 mph - N/A   Scattered Clouds
11:55 PM 77.9 °F - 74.3 °F 89% 30.00 in 10.0 mi South 4.6 mph - N/A   Partly Cloudy